Regional Weather Roundup
Issued by NWS

Home | Current Version | Previous Version | Graphics & Text | Print | Product List | Glossary On
Versions: 1 2 3 4 5 6 7 8 9 10 11 12 13 14 15 16 17 18 19 20 21 22 23 24 25 26 27 28 29 30 31 32 33 34 35 36 37 38 39 40 41 42 43 44 45 46 47 48 49 50
759
ASUS43 KLMK 190110
RWRKY
KENTUCKY REGIONAL WEATHER ROUNDUP
NATIONAL WEATHER SERVICE LOUISVILLE KY
800 PM EST SAT NOV 18 2017

NOTE "FAIR" INDICATES FEW OR NO CLOUDS BELOW 12,000 FEET
WITH NO SIGNIFICANT WEATHER AND/OR OBSTRUCTIONS TO VISIBILITY.

KYZ001>023-026-027-061>063-070>075-190200-
WESTERN AND SOUTH CENTRAL KENTUCKY

CITY           SKY/WX    TMP DP  RH WIND       PRES   REMARKS
PADUCAH        CLOUDY    45  37  73 NW12G21   29.87R
HENDERSON      LGT RAIN  40  37  89 NW20G28   29.80R WCI  30
OWENSBORO      CLOUDY    41  37  86 NW29G36   29.75R
HOPKINSVILLE   CLOUDY    44  38  82 NW28G33   29.78R
BOWLING GREEN  CLOUDY    46  42  86 NW21G31   29.70R
GLASGOW        CLOUDY    44  44 100 NW20G33   29.65R
$$

KYZ024-025-028>034-038-045-046-053-190200-
NORTH CENTRAL KENTUCKY

CITY           SKY/WX    TMP DP  RH WIND       PRES   REMARKS
LOUISVILLE/SDF LGT RAIN  47  44  90 NW22G35   29.56R FOG
LOUISVILLE/LOU CLOUDY    48  43  82 NW21G36   29.56R
FORT KNOX      CLOUDY    43  41  93 W22G31    29.59R
$$

KYZ035>037-039>044-047>052-055>060-089>105-190200-
NORTHEAST KENTUCKY

CITY           SKY/WX    TMP DP  RH WIND       PRES   REMARKS
LEXINGTON      LGT RAIN  56  52  86 W21G43    29.42R
COVINGTON      CLOUDY    46  45  96 NW23G35   29.42R
FRANKFORT      LGT RAIN  49  45  86 NW20G38   29.46R FOG
$$

KYZ054-064>069-076>088-106>120-190200-
SOUTHEAST KENTUCKY

CITY           SKY/WX    TMP DP  RH WIND       PRES   REMARKS
JACKSON        RAIN      59  56  89 S8        29.38F FOG
LONDON         HVY RAIN  59  56  89 W22G35    29.48R VSB 3/4
SOMERSET       LGT RAIN  55  55 100 W7        29.51R
MIDDLESBORO    RAIN      61  59  92 S12G17    29.48F
MONTICELLO     LGT RAIN  57  53  86 W17G23    29.53R
$$





USA.gov is the U.S. government's official web portal to all federal, state and local government web resources and services.